Time,TemperatureF,DewpointF,PressureIn,WindDirection,WindDirectionDegrees,WindSpeedMPH,WindSpeedGustMPH,Humidity,HourlyPrecipIn,Conditions,Clouds,dailyrainin,SoftwareType,DateUTC
2013-07-31 00:00:00,67.3,62.0,30.12,SE,133,2.0,3.0,84,0.00,,,0.00,weatherlink.com 1.10,2013-07-31 05:00:00,
2013-07-31 00:15:00,67.4,62.0,30.12,SE,135,2.0,4.0,84,0.00,,,0.00,weatherlink.com 1.10,2013-07-31 05:15:00,
2013-07-31 00:30:00,67.0,62.0,30.12,SSE,164,4.0,4.0,85,0.00,,,0.00,weatherlink.com 1.10,2013-07-31 05:30:00,
2013-07-31 00:45:00,66.6,62.0,30.11,SSE,164,1.0,4.0,86,0.00,,,0.00,weatherlink.com 1.10,2013-07-31 05:45:00,
2013-07-31 01:00:00,66.5,63.0,30.11,SE,137,0.0,3.0,87,0.00,,,0.00,weatherlink.com 1.10,2013-07-31 06:00:00,
2013-07-31 01:15:00,66.3,62.0,30.10,ESE,123,2.0,3.0,87,0.00,,,0.00,weatherlink.com 1.10,2013-07-31 06:15:00,
2013-07-31 01:30:00,66.3,62.0,30.10,SE,142,0.0,4.0,87,0.00,,,0.00,weatherlink.com 1.10,2013-07-31 06:30:00,
2013-07-31 01:45:00,66.4,63.0,30.11,SE,124,0.0,3.0,87,0.00,,,0.00,weatherlink.com 1.10,2013-07-31 06:45:00,
2013-07-31 02:00:00,66.3,62.0,30.10,SE,146,2.0,4.0,87,0.00,,,0.00,weatherlink.com 1.10,2013-07-31 07:00:00,
2013-07-31 02:15:00,66.1,63.0,30.09,SSE,166,3.0,5.0,88,0.00,,,0.00,weatherlink.com 1.10,2013-07-31 07:15:00,
2013-07-31 02:30:00,66.2,63.0,30.10,SSE,158,3.0,5.0,89,0.00,,,0.00,weatherlink.com 1.10,2013-07-31 07:30:00,
2013-07-31 02:45:00,66.2,63.0,30.09,SSE,155,2.0,7.0,89,0.00,,,0.00,weatherlink.com 1.10,2013-07-31 07:45:00,
2013-07-31 03:00:00,65.9,64.0,30.09,SSE,160,2.0,8.0,92,0.00,,,0.00,weatherlink.com 1.10,2013-07-31 08:00:00,
2013-07-31 03:15:00,65.3,64.0,30.09,SSE,155,2.0,4.0,94,0.00,,,0.00,weatherlink.com 1.10,2013-07-31 08:15:00,
2013-07-31 03:30:00,65.1,64.0,30.08,SSE,155,1.0,3.0,95,0.00,,,0.00,weatherlink.com 1.10,2013-07-31 08:30:00,
2013-07-31 03:45:00,65.1,64.0,30.08,SSE,155,1.0,4.0,96,0.00,,,0.00,weatherlink.com 1.10,2013-07-31 08:45:00,
2013-07-31 04:00:00,65.1,64.0,30.07,SSE,155,2.0,4.0,96,0.00,,,0.00,weatherlink.com 1.10,2013-07-31 09:00:00,
2013-07-31 04:15:00,65.1,64.0,30.07,SSE,155,3.0,5.0,96,0.00,,,0.00,weatherlink.com 1.10,2013-07-31 09:15:00,
2013-07-31 04:30:00,65.2,64.0,30.07,SSE,149,2.0,5.0,97,0.00,,,0.00,weatherlink.com 1.10,2013-07-31 09:30:00,
2013-07-31 04:45:00,65.4,65.0,30.07,SSE,150,0.0,2.0,97,0.00,,,0.00,weatherlink.com 1.10,2013-07-31 09:45:00,
2013-07-31 05:00:00,65.5,65.0,30.07,SSE,150,1.0,3.0,97,0.00,,,0.00,weatherlink.com 1.10,2013-07-31 10:00:00,
2013-07-31 05:15:00,65.5,65.0,30.07,SSE,163,3.0,5.0,97,0.00,,,0.00,weatherlink.com 1.10,2013-07-31 10:15:00,
2013-07-31 05:30:00,65.5,65.0,30.07,SSE,158,0.0,7.0,97,0.00,,,0.00,weatherlink.com 1.10,2013-07-31 10:30:00,
2013-07-31 05:45:00,65.6,65.0,30.07,SSE,157,2.0,4.0,97,0.00,,,0.00,weatherlink.com 1.10,2013-07-31 10:45:00,
2013-07-31 06:00:00,65.6,65.0,30.07,SSE,157,2.0,4.0,97,0.00,,,0.00,weatherlink.com 1.10,2013-07-31 11:00:00,
2013-07-31 06:15:00,65.5,65.0,30.06,SSE,151,2.0,5.0,97,0.01,,,0.01,weatherlink.com 1.10,2013-07-31 11:15:00,
2013-07-31 06:30:00,65.6,65.0,30.07,South,174,0.0,5.0,97,0.01,,,0.01,weatherlink.com 1.10,2013-07-31 11:30:00,
2013-07-31 06:45:00,65.7,65.0,30.07,SSE,164,2.0,6.0,97,0.01,,,0.01,weatherlink.com 1.10,2013-07-31 11:45:00,
2013-07-31 07:00:00,65.8,65.0,30.07,SSE,163,2.0,5.0,97,0.00,,,0.01,weatherlink.com 1.10,2013-07-31 12:00:00,
2013-07-31 07:15:00,65.8,65.0,30.07,SSE,163,1.0,5.0,97,0.00,,,0.01,weatherlink.com 1.10,2013-07-31 12:15:00,
2013-07-31 07:30:00,65.9,65.0,30.07,SSE,163,0.0,2.0,98,0.00,,,0.01,weatherlink.com 1.10,2013-07-31 12:30:00,
2013-07-31 07:45:00,65.9,65.0,30.07,SSE,163,2.0,3.0,98,0.00,,,0.01,weatherlink.com 1.10,2013-07-31 12:45:00,
2013-07-31 08:00:00,66.0,66.0,30.07,SSE,163,3.0,4.0,98,0.00,,,0.01,weatherlink.com 1.10,2013-07-31 13:00:00,
2013-07-31 08:15:00,66.1,66.0,30.07,SSE,163,1.0,2.0,98,0.00,,,0.01,weatherlink.com 1.10,2013-07-31 13:15:00,
2013-07-31 08:30:00,66.1,66.0,30.07,SSE,163,2.0,3.0,98,0.00,,,0.01,weatherlink.com 1.10,2013-07-31 13:30:00,
2013-07-31 08:45:00,66.1,66.0,30.07,SSE,162,1.0,5.0,98,0.00,,,0.01,weatherlink.com 1.10,2013-07-31 13:45:00,
2013-07-31 09:00:00,66.3,66.0,30.07,SSE,159,3.0,4.0,98,0.00,,,0.01,weatherlink.com 1.10,2013-07-31 14:00:00,
2013-07-31 09:15:00,66.3,66.0,30.06,SSE,167,0.0,5.0,98,0.00,,,0.01,weatherlink.com 1.10,2013-07-31 14:15:00,
2013-07-31 09:31:00,66.5,66.0,30.06,SSE,167,0.0,4.0,98,0.00,,,0.01,weatherlink.com 1.10,2013-07-31 14:31:00,
2013-07-31 09:46:00,66.7,66.0,30.05,SSE,167,2.0,5.0,98,0.00,,,0.01,weatherlink.com 1.10,2013-07-31 14:46:00,
2013-07-31 10:01:00,66.9,66.0,30.05,SSE,151,2.0,5.0,98,0.00,,,0.01,weatherlink.com 1.10,2013-07-31 15:01:00,
2013-07-31 10:16:00,67.2,67.0,30.05,SSE,151,1.0,4.0,98,0.00,,,0.01,weatherlink.com 1.10,2013-07-31 15:16:00,
2013-07-31 10:31:00,67.2,66.0,30.05,SSE,151,0.0,3.0,97,0.00,,,0.01,weatherlink.com 1.10,2013-07-31 15:31:00,
2013-07-31 10:46:00,67.5,67.0,30.05,SSE,151,0.0,3.0,97,0.00,,,0.01,weatherlink.com 1.10,2013-07-31 15:46:00,
2013-07-31 11:01:00,68.1,67.0,30.05,SSE,151,0.0,3.0,97,0.00,,,0.01,weatherlink.com 1.10,2013-07-31 16:01:00,
2013-07-31 11:16:00,68.3,68.0,30.05,SSE,151,0.0,2.0,97,0.00,,,0.01,weatherlink.com 1.10,2013-07-31 16:16:00,
2013-07-31 11:31:00,68.5,67.0,30.05,SSE,151,0.0,1.0,96,0.00,,,0.01,weatherlink.com 1.10,2013-07-31 16:31:00,
2013-07-31 11:46:00,68.8,68.0,30.05,SSE,151,0.0,1.0,96,0.00,,,0.01,weatherlink.com 1.10,2013-07-31 16:46:00,
2013-07-31 12:01:00,69.0,68.0,30.04,SSE,151,0.0,1.0,95,0.00,,,0.01,weatherlink.com 1.10,2013-07-31 17:01:00,
2013-07-31 12:16:00,69.3,68.0,30.04,SSE,151,0.0,1.0,94,0.00,,,0.01,weatherlink.com 1.10,2013-07-31 17:16:00,
2013-07-31 12:31:00,69.7,68.0,30.04,SSE,151,0.0,2.0,93,0.00,,,0.01,weatherlink.com 1.10,2013-07-31 17:31:00,
2013-07-31 12:46:00,70.3,68.0,30.04,SSE,151,0.0,2.0,93,0.00,,,0.01,weatherlink.com 1.10,2013-07-31 17:46:00,
2013-07-31 13:01:00,70.2,68.0,30.03,WNW,288,0.0,1.0,92,0.00,,,0.01,weatherlink.com 1.10,2013-07-31 18:01:00,
2013-07-31 13:16:00,70.6,68.0,30.03,WNW,288,1.0,2.0,92,0.00,,,0.01,weatherlink.com 1.10,2013-07-31 18:16:00,
2013-07-31 13:31:00,71.0,68.0,30.03,NNW,332,0.0,4.0,91,0.00,,,0.01,weatherlink.com 1.10,2013-07-31 18:31:00,
2013-07-31 14:01:00,70.7,68.0,30.02,NNW,335,3.0,6.0,92,0.00,,,0.01,weatherlink.com 1.10,2013-07-31 19:01:00,
2013-07-31 15:01:00,70.4,68.0,30.02,NW,320,6.0,8.0,91,0.00,,,0.01,weatherlink.com 1.10,2013-07-31 20:01:00,
2013-07-31 15:31:00,70.1,67.0,30.02,NW,310,6.0,7.0,91,0.00,,,0.01,weatherlink.com 1.10,2013-07-31 20:31:00,
2013-07-31 15:46:00,70.0,67.0,30.02,North,355,4.0,8.0,91,0.00,,,0.01,weatherlink.com 1.10,2013-07-31 20:46:00,
2013-07-31 16:01:00,69.8,67.0,30.01,NW,320,6.0,8.0,90,0.00,,,0.01,weatherlink.com 1.10,2013-07-31 21:01:00,
2013-07-31 16:31:00,69.5,67.0,30.01,NW,320,4.0,6.0,91,0.00,,,0.01,weatherlink.com 1.10,2013-07-31 21:31:00,
2013-07-31 16:46:00,69.7,67.0,30.01,NNW,328,3.0,8.0,90,0.00,,,0.01,weatherlink.com 1.10,2013-07-31 21:46:00,
2013-07-31 17:01:00,69.7,67.0,30.01,NNW,346,4.0,8.0,90,0.00,,,0.01,weatherlink.com 1.10,2013-07-31 22:01:00,
2013-07-31 17:46:00,69.5,66.0,30.00,NNW,337,6.0,8.0,88,0.01,,,0.02,weatherlink.com 1.10,2013-07-31 22:46:00,
2013-07-31 18:01:00,69.5,66.0,30.00,North,356,7.0,9.0,88,0.01,,,0.02,weatherlink.com 1.10,2013-07-31 23:01:00,
2013-07-31 18:16:00,69.5,66.0,30.00,NW,315,5.0,7.0,88,0.01,,,0.02,weatherlink.com 1.10,2013-07-31 23:16:00,
2013-07-31 18:31:00,69.4,65.0,30.00,NNW,347,4.0,9.0,87,0.00,,,0.02,weatherlink.com 1.10,2013-07-31 23:31:00,
2013-07-31 18:46:00,69.5,66.0,30.00,North,349,5.0,7.0,87,0.00,,,0.02,weatherlink.com 1.10,2013-07-31 23:46:00,
2013-07-31 19:01:00,69.4,65.0,30.00,North,355,4.0,8.0,86,0.00,,,0.02,weatherlink.com 1.10,2013-08-01 00:01:00,
2013-07-31 19:16:00,69.3,65.0,30.00,North,357,3.0,6.0,87,0.00,,,0.02,weatherlink.com 1.10,2013-08-01 00:16:00,
2013-07-31 19:31:00,69.8,66.0,30.00,NNE,24,4.0,5.0,86,0.00,,,0.02,weatherlink.com 1.10,2013-08-01 00:31:00,
2013-07-31 19:46:00,69.0,65.0,30.00,NNE,17,3.0,5.0,87,0.00,,,0.02,weatherlink.com 1.10,2013-08-01 00:46:00,
2013-07-31 20:01:00,68.3,65.0,30.00,NNE,17,2.0,3.0,88,0.00,,,0.02,weatherlink.com 1.10,2013-08-01 01:01:00,
2013-07-31 20:16:00,67.5,65.0,30.00,NNE,18,0.0,2.0,90,0.00,,,0.02,weatherlink.com 1.10,2013-08-01 01:16:00,
2013-07-31 20:31:00,65.4,63.0,30.00,NNE,18,0.0,0.0,92,0.00,,,0.02,weatherlink.com 1.10,2013-08-01 01:31:00,
2013-07-31 20:46:00,64.7,63.0,30.01,NNE,17,0.0,0.0,93,0.00,,,0.02,weatherlink.com 1.10,2013-08-01 01:46:00,
2013-07-31 21:01:00,64.1,62.0,30.01,NNE,18,0.0,0.0,94,0.00,,,0.02,weatherlink.com 1.10,2013-08-01 02:01:00,
2013-07-31 21:16:00,63.1,62.0,30.01,NNE,18,0.0,0.0,95,0.00,,,0.02,weatherlink.com 1.10,2013-08-01 02:16:00,
2013-07-31 21:31:00,62.1,61.0,30.01,NNE,18,0.0,1.0,95,0.00,,,0.02,weatherlink.com 1.10,2013-08-01 02:31:00,
2013-07-31 21:46:00,62.2,61.0,30.02,NNE,18,0.0,0.0,96,0.00,,,0.02,weatherlink.com 1.10,2013-08-01 02:46:00,
2013-07-31 22:01:00,61.8,61.0,30.02,NNE,18,0.0,0.0,96,0.00,,,0.02,weatherlink.com 1.10,2013-08-01 03:01:00,
2013-07-31 22:16:00,62.5,61.0,30.02,NNE,18,0.0,1.0,96,0.00,,,0.02,weatherlink.com 1.10,2013-08-01 03:16:00,
2013-07-31 22:46:00,63.2,62.0,30.00,SSE,168,1.0,5.0,96,0.02,,,0.04,weatherlink.com 1.10,2013-08-01 03:46:00,
2013-07-31 23:01:00,64.8,64.0,30.00,NW,320,1.0,5.0,97,0.02,,,0.04,weatherlink.com 1.10,2013-08-01 04:01:00,
2013-07-31 23:17:00,64.6,64.0,30.01,NW,320,0.0,2.0,96,0.02,,,0.04,weatherlink.com 1.10,2013-08-01 04:17:00,
2013-07-31 23:32:00,64.6,64.0,30.00,NW,320,1.0,1.0,97,0.02,,,0.04,weatherlink.com 1.10,2013-08-01 04:32:00,
2013-07-31 23:47:00,64.5,64.0,30.01,NW,320,0.0,0.0,97,0.00,,,0.04,weatherlink.com 1.10,2013-08-01 04:47:00,